User: anonymous   Login
Location: Baix
(44.7118°N, 4.7648°E)
Time: 09:35:32
(UTC+00:00)
Language:

Cosmos 2219 - Orbit

View from above orbital plane
View from above orbital plane
View from above satellite
View from above satellite

Ground track
Ground track

The orbit data is extracted from the following two-line orbital elements,

1 22219U 92076A   20293.89662759 +.00000187 +00000-0 +12362-3 0  9991
2 22219 071.0610 167.7522 0019655 320.0647 039.9028 14.13654873440721
Epoch (UTC): 19 October 2020 21:31:08
Eccentricity: 0.0019655
inclination: 71.0610°
perigee height: 832 km
apogee height: 861 km
right ascension of ascending node: 167.7522°
argument of perigee: 320.0647°
revolutions per day: 14.13654873
mean anomaly at epoch: 39.9028°
orbit number at epoch: 44072

The dashed part of the orbit path shows where the satellite is in the earth's shadow,  

DLR